GEFSNGP_850_meantemp_018.txt.gz
Temperature
17 18 18 18 19 19 19 19 19 20 20 21 20 20 20 20 20 21 21 21 21 21 21 20 20 20 19 19 19 18 18 17 16 16 16 15 15 15 15 15 14 14 14 14
17 18 18 18 19 19 19 19 19 19 20 20 18 18 19 20 20 20 21 21 21 21 20 20 19 19 19 19 19 18 18 17 16 16 16 16 15 15 15 15 14 14 14 14
17 18 18 18 18 18 18 18 18 17 17 17 18 18 19 19 19 20 20 20 19 19 19 19 19 18 18 18 18 18 17 17 16 16 16 16 15 15 15 15 14 14 14 14
16 17 16 16 17 17 17 17 17 17 17 17 17 18 19 17 17 18 18 18 18 18 18 18 18 18 18 18 18 17 17 16 16 16 16 16 15 15 15 14 14 14 14 14
15 16 17 15 14 14 16 16 16 16 16 16 16 21 21 17 15 15 16 16 17 17 18 18 18 18 18 17 17 16 16 15 15 15 15 15 15 15 15 14 14 14 14 14
13 13 13 10 11 13 16 15 14 15 15 15 16 19 19 16 15 15 15 16 17 17 17 18 17 17 16 16 15 15 14 14 14 14 14 14 14 14 14 14 14 14 14 14
11 11 10 8 9 13 13 11 12 13 14 14 15 15 15 15 15 14 15 15 15 16 17 16 15 15 15 14 13 13 13 13 13 13 13 13 14 14 14 14 14 14 14 13
11 10 9 8 9 9 9 10 11 13 13 13 13 14 14 15 14 14 15 15 15 15 15 14 14 14 13 13 12 12 12 12 12 12 12 12 13 13 13 13 13 13 13 13
11 11 10 9 8 9 9 10 11 12 12 13 13 14 14 15 15 15 15 15 14 14 14 13 13 13 13 12 12 12 11 11 11 11 12 12 12 12 12 12 12 12 12 12
12 12 11 10 9 9 9 9 10 11 12 13 13 13 14 15 15 15 15 15 14 14 14 13 13 13 13 12 12 11 11 11 11 11 11 11 11 11 11 11 11 11 12 12
11 12 11 10 10 9 9 9 10 10 11 12 13 13 14 15 15 15 15 15 14 14 14 13 13 13 13 13 12 11 11 11 11 11 11 11 11 11 11 11 11 11 11 11
9 10 9 9 9 9 8 9 9 10 11 12 13 13 14 14 15 15 15 15 15 14 14 14 13 13 13 13 12 11 11 11 11 11 11 11 11 11 11 11 11 11 11 11
9 8 8 8 8 8 8 9 9 10 11 12 13 14 14 14 15 15 15 15 15 15 14 14 13 13 13 13 12 11 11 11 11 10 10 10 10 11 11 11 11 11 11 11
8 8 8 8 8 8 8 9 9 10 11 12 13 14 14 14 15 15 15 16 16 15 14 14 14 13 13 12 12 11 11 11 11 11 10 10 10 10 10 10 10 10 10 10
8 8 8 8 8 8 8 9 9 10 11 13 14 15 15 15 15 16 16 16 16 15 15 14 14 13 13 13 12 11 11 11 11 11 10 10 10 10 10 10 10 10 9 9
8 8 8 8 8 8 8 9 9 10 11 13 15 15 15 16 16 16 16 16 16 16 15 15 14 14 13 13 12 12 11 11 11 10 10 10 10 10 10 10 10 9 9 9
8 8 8 8 8 8 8 8 9 9 10 12 14 15 16 16 16 17 17 17 16 16 16 15 15 14 14 13 12 11 11 11 11 10 10 10 10 10 10 10 10 9 9 9
8 8 8 8 8 8 8 8 9 9 10 12 15 16 17 17 17 17 17 17 17 16 16 16 15 15 14 13 12 11 11 10 10 10 10 10 10 10 10 10 10 10 9 9
8 8 8 8 8 8 8 8 9 9 10 12 15 16 17 18 18 18 18 18 17 17 17 16 16 15 14 13 12 11 11 10 10 10 10 10 10 10 10 10 10 10 10 9
8 8 8 8 8 8 8 9 9 9 10 12 15 17 18 18 18 18 18 18 18 17 17 17 16 15 14 13 12 11 10 10 10 10 10 10 10 10 10 10 10 10 10 9
8 8 8 8 8 9 9 9 9 10 10 12 14 16 18 18 19 19 19 18 18 18 17 17 16 15 14 13 12 11 10 10 10 10 10 10 10 10 10 10 10 10 9 9
8 8 8 8 8 9 9 9 10 10 11 12 14 16 18 18 19 19 19 18 18 18 17 17 16 15 14 13 12 11 10 10 10 10 10 10 10 10 10 10 10 9 9 9
8 8 8 8 8 9 9 10 10 10 11 12 14 16 17 18 18 19 19 19 18 18 17 17 16 15 14 13 12 11 10 10 10 10 10 10 10 10 9 9 9 9 9 9
8 8 8 8 8 9 9 10 10 11 11 12 13 15 17 18 18 18 18 18 18 18 17 17 16 15 13 12 12 11 10 10 10 9 9 9 9 9 9 9 9 9 9 9
8 8 8 8 8 8 9 10 10 11 11 12 13 14 16 17 18 18 18 18 18 18 17 16 15 14 13 12 11 11 10 10 10 9 9 9 9 9 9 9 9 9 8 8
8 8 8 8 8 8 8 9 9 10 11 12 13 14 16 17 17 18 18 18 18 17 17 16 15 14 13 12 11 10 10 10 10 9 9 9 9 9 9 9 8 8 8 8
8 8 8 8 8 8 8 9 9 10 10 11 12 14 15 16 17 17 17 17 17 17 17 16 15 14 13 12 11 10 10 10 9 9 9 9 8 8 8 8 8 8 8 9

GEFSNGP_850_meantemp_024.txt.gz
Temperature
18 18 18 17 16 17 18 18 17 16 16 16 17 18 19 19 20 21 21 22 22 23 23 23 22 22 22 21 20 20 19 19 18 18 17 17 16 16 16 16 16 16 15 15
18 18 18 16 14 15 16 16 16 16 15 17 18 18 18 18 19 19 20 21 21 22 22 22 21 21 21 21 20 20 19 18 18 18 17 17 16 16 16 16 15 16 16 15
16 17 18 13 10 11 13 14 14 14 15 17 17 18 18 17 17 18 18 18 19 19 20 20 20 20 20 19 19 19 19 18 18 17 17 16 16 16 16 15 15 15 15 15
15 16 13 10 10 10 11 12 13 13 15 16 16 17 17 17 17 17 17 17 17 18 18 19 19 19 19 18 18 18 18 17 17 16 16 15 15 15 15 15 15 15 15 15
14 14 12 10 10 10 10 11 11 12 13 14 15 17 17 16 16 16 16 16 17 17 17 17 18 18 18 17 17 17 16 16 15 15 15 15 14 14 14 15 15 15 15 15
14 13 11 10 11 10 11 11 11 10 12 13 14 14 15 16 16 16 16 16 16 16 16 16 16 16 16 15 15 14 14 14 14 14 14 13 13 13 14 14 14 14 14 14
14 13 11 11 11 11 11 10 9 10 11 12 13 14 15 16 16 16 16 16 16 15 15 16 15 15 15 14 13 13 13 13 13 13 13 13 13 13 13 13 13 13 14 14
13 12 11 12 12 11 10 10 10 10 11 12 12 13 14 15 16 17 16 16 15 15 15 15 15 14 14 13 13 13 12 12 12 12 12 12 12 12 12 12 13 13 13 13
13 13 13 13 12 11 11 10 10 10 11 11 12 13 14 15 16 17 16 16 15 15 15 15 14 14 13 13 13 13 12 12 12 12 12 12 11 11 11 11 12 12 12 12
14 14 13 13 12 12 11 11 11 11 11 12 12 13 14 15 16 17 17 16 16 15 15 15 14 14 13 13 13 13 13 12 12 12 11 11 11 11 11 11 11 11 12 12
13 14 13 13 12 11 11 11 11 11 11 12 12 13 14 15 16 16 17 16 16 16 16 15 15 14 14 13 13 13 13 13 12 12 11 11 11 11 11 11 11 11 11 12
13 13 12 12 12 12 12 11 11 11 12 12 13 14 14 15 16 16 17 17 16 16 16 16 15 14 14 13 13 13 13 12 12 12 11 11 11 11 11 11 11 11 11 11
13 12 12 12 12 12 12 12 12 12 12 13 13 14 14 15 16 16 17 17 16 16 16 15 15 14 14 13 13 12 12 12 12 12 11 11 11 11 11 11 11 11 11 11
13 12 12 12 12 12 12 12 12 12 12 13 13 13 14 15 16 16 16 17 17 16 16 16 15 15 14 13 13 12 12 12 12 12 11 11 11 11 11 10 10 10 10 10
13 13 12 12 12 12 12 12 12 12 12 12 12 13 14 14 15 16 16 17 17 16 16 16 15 15 14 14 13 13 12 12 12 11 11 11 11 11 11 10 10 10 10 10
13 13 12 12 12 12 12 12 12 12 12 12 12 13 13 14 15 16 17 17 16 16 16 16 16 15 15 14 13 13 12 12 12 12 12 11 11 11 11 10 10 10 9 9
12 12 12 12 12 11 11 11 11 11 11 11 12 12 13 15 16 16 17 17 17 16 16 16 16 15 15 14 14 13 12 12 12 12 11 11 11 11 11 10 10 10 10 10
12 12 11 11 11 11 11 11 11 11 11 11 11 12 13 14 15 16 17 17 17 17 16 16 16 16 15 15 14 13 12 12 12 11 11 11 11 11 11 10 10 10 10 10
12 12 11 11 11 11 11 11 11 11 11 11 11 12 13 14 15 16 17 17 17 17 17 16 16 16 15 15 14 13 12 12 12 11 11 11 11 11 11 10 10 10 10 10
12 12 12 11 11 11 11 11 11 11 11 11 12 12 13 14 15 16 17 17 17 17 17 16 16 16 15 15 14 13 12 12 11 11 11 11 11 11 11 10 10 10 10 10
12 12 12 11 11 11 11 11 11 11 11 11 11 12 12 13 15 16 17 17 17 17 17 17 16 16 15 15 14 13 12 12 11 11 11 11 11 11 11 11 10 10 10 10
12 12 12 12 11 11 11 11 11 11 11 11 11 12 12 13 14 16 17 17 17 17 17 17 16 16 16 15 14 13 12 11 11 11 11 11 11 11 11 10 10 10 10 10
12 12 12 12 11 11 11 11 11 11 11 11 11 12 12 12 13 15 16 16 16 17 16 16 16 16 15 15 14 13 12 11 11 11 11 11 11 11 10 10 10 10 10 10
12 12 12 11 11 11 11 11 11 11 11 11 11 12 12 12 13 14 15 16 16 16 16 16 16 16 15 14 13 13 12 11 11 10 10 10 10 10 10 10 10 10 10 9
12 12 12 11 11 11 11 10 10 10 11 11 11 11 11 12 12 14 15 15 16 16 16 16 16 15 15 14 13 12 12 11 11 11 10 10 10 10 10 10 10 9 9 9
12 11 11 11 11 11 10 10 10 10 10 10 11 11 11 12 12 13 14 14 15 15 16 16 16 15 14 13 13 12 11 11 11 10 10 10 10 10 10 10 9 9 9 9
11 11 11 11 11 11 11 11 10 10 10 10 10 11 11 11 12 13 13 14 14 15 15 16 15 15 14 13 13 12 11 11 11 10 10 10 10 10 10 9 9 9 9 9

GEFSNGP_850_meantemp_030.txt.gz
Temperature
13 12 12 11 11 12 12 12 12 12 12 12 12 13 13 14 14 14 14 15 16 17 18 18 19 19 19 19 19 18 18 18 17 17 17 17 17 17 16 16 16 15 15 15
12 12 12 11 10 11 11 11 12 12 11 12 12 13 13 13 13 13 14 14 15 16 17 17 17 18 18 18 18 18 17 17 17 16 16 16 16 16 16 16 16 15 15 15
11 12 12 10 9 9 10 10 11 10 10 11 12 12 13 13 13 13 14 14 15 15 16 16 16 17 17 17 17 17 17 16 16 16 16 16 16 16 16 15 15 15 15 15
10 11 10 9 10 9 10 10 10 10 11 11 11 12 13 13 13 13 14 15 15 15 15 15 15 16 16 16 16 15 15 15 15 15 15 15 15 15 15 15 15 15 15 15
9 10 10 10 11 10 9 10 10 10 10 10 11 12 13 13 13 14 14 15 15 15 15 15 15 15 15 15 15 15 14 14 14 14 14 14 14 14 14 14 14 14 14 15
9 10 9 10 11 10 10 10 10 9 10 10 10 10 11 13 14 14 15 15 15 15 15 15 15 14 14 14 14 13 13 13 13 13 13 13 13 13 13 13 13 13 14 14
9 9 9 10 11 11 10 9 10 10 10 10 10 10 11 13 14 14 15 15 15 15 15 15 14 14 14 13 13 13 12 12 12 12 12 12 12 12 12 12 12 13 13 13
8 9 9 11 11 10 9 11 10 11 11 11 11 12 12 13 14 15 15 15 15 15 15 14 14 14 14 13 13 12 12 12 12 12 12 12 12 12 12 12 12 12 12 13
9 9 11 12 11 11 11 11 11 11 11 11 11 12 13 14 14 15 15 15 15 15 15 15 14 14 14 13 13 13 12 12 12 12 12 11 11 11 12 12 12 12 12 12
10 10 11 11 11 11 11 11 11 11 12 12 12 12 13 14 14 15 15 15 15 15 15 15 15 14 14 13 13 13 12 12 12 11 11 11 11 11 11 12 12 12 12 12
9 11 11 12 12 12 12 12 12 12 12 12 12 12 13 13 14 15 15 16 16 15 15 15 15 14 14 13 13 12 12 12 12 11 11 11 11 11 11 11 11 11 11 11
9 11 11 12 12 12 12 12 12 12 12 12 12 12 13 14 14 15 15 15 16 16 15 15 15 15 14 14 13 13 12 12 12 11 11 11 11 11 11 10 10 11 11 11
13 12 12 12 12 12 12 12 12 12 12 12 12 12 13 14 14 15 15 16 16 16 16 15 15 15 15 14 13 13 12 12 12 11 11 11 11 11 10 10 10 10 10 10
13 13 12 12 12 12 11 11 11 11 11 12 12 12 13 14 15 15 16 16 16 16 16 16 15 15 15 14 14 13 12 12 12 11 11 11 11 11 10 10 10 9 9 9
13 13 12 12 12 11 11 11 11 11 11 12 12 12 13 14 15 15 16 16 16 16 16 16 16 15 15 14 14 13 12 12 12 11 11 11 11 11 10 10 10 9 9 9
13 12 12 12 12 11 11 11 11 11 11 11 12 12 12 13 14 15 16 16 16 16 16 16 16 16 15 15 14 13 13 12 12 11 11 11 11 11 10 10 10 9 9 9
12 12 12 12 11 11 11 11 11 11 11 11 11 12 12 13 14 16 16 17 17 17 17 16 16 16 15 15 14 14 13 12 12 11 11 11 11 11 10 10 10 10 9 9
13 13 12 12 11 11 11 11 11 11 11 11 11 12 12 13 14 15 16 17 17 17 17 16 16 16 15 15 14 14 13 12 12 11 11 11 11 10 10 10 10 10 10 9
13 12 12 11 11 11 11 11 11 11 11 11 11 12 12 12 13 14 15 16 17 17 17 17 16 16 15 15 14 14 13 12 11 11 11 11 11 11 10 10 10 10 10 10
13 12 12 11 11 11 11 11 11 11 11 11 11 12 12 12 13 14 15 16 16 16 17 17 16 16 15 15 14 14 13 12 12 11 11 11 11 10 10 10 10 10 10 10
12 12 12 11 11 11 11 11 11 11 11 11 11 11 11 12 12 13 14 16 16 16 16 16 16 16 15 15 14 14 13 12 11 11 11 11 11 10 10 10 10 10 10 10
12 12 12 11 11 11 11 11 11 11 11 11 11 11 12 12 12 13 13 14 15 16 16 16 16 16 15 15 14 14 13 12 11 11 11 11 11 11 10 10 10 10 10 10
12 12 12 11 11 11 11 11 11 11 11 11 11 11 11 11 12 12 13 14 14 15 16 16 16 16 15 15 14 14 13 12 11 11 11 11 11 10 10 10 10 10 10 9
12 12 12 12 11 11 11 11 11 11 11 11 11 11 11 12 12 12 12 13 14 15 15 16 16 16 15 15 14 14 13 12 11 11 11 10 10 10 10 10 10 10 10 9
12 12 12 12 11 11 11 11 11 11 11 11 11 11 11 11 11 12 12 13 14 14 15 15 15 15 15 15 14 14 13 12 11 11 11 10 10 10 10 10 10 10 9 9
12 12 12 12 12 11 11 11 11 11 11 11 11 11 11 11 12 12 12 13 13 14 14 15 15 15 15 14 14 13 13 12 11 11 11 10 10 10 10 10 10 9 9 9
12 12 12 12 12 11 11 11 11 11 11 11 11 11 11 11 11 12 12 12 13 13 14 14 14 14 14 14 14 13 13 12 12 11 11 10 10 10 10 9 9 9 9 9

GEFSNGP_850_meantemp_036.txt.gz
Temperature
10 11 11 10 10 11 11 11 11 11 11 10 10 10 10 10 11 11 11 12 12 13 13 14 15 15 16 16 17 17 17 17 17 16 16 16 16 16 16 16 16 15 15 15
10 11 11 10 10 10 10 10 11 11 10 10 10 10 11 10 10 11 11 12 13 13 13 14 14 15 15 16 16 16 16 16 16 16 16 16 16 16 16 16 16 15 15 15
9 10 11 10 9 10 10 10 9 9 9 10 10 10 10 11 10 11 12 12 13 13 13 13 14 14 14 14 15 15 15 15 15 15 15 15 15 15 15 15 15 15 15 15
9 10 10 10 10 10 10 10 10 10 10 10 9 10 12 11 11 12 12 13 13 13 13 13 13 13 13 13 14 14 14 14 14 14 14 14 14 14 14 15 14 14 14 14
8 9 10 10 11 10 9 10 10 9 9 10 10 12 12 12 12 12 13 13 13 13 13 13 13 13 13 13 13 13 13 13 13 13 13 13 13 13 13 13 13 13 13 14
8 9 9 10 10 10 9 10 10 9 9 9 9 9 10 12 13 13 14 14 14 14 14 13 13 13 13 12 12 12 12 12 12 12 12 12 12 12 12 12 12 12 12 13
8 8 9 10 10 10 9 10 10 10 10 10 9 9 11 12 13 13 14 14 14 14 14 14 13 13 13 12 12 12 12 12 12 12 12 11 11 11 12 12 12 12 12 12
7 8 9 11 10 9 9 11 11 11 11 10 11 12 12 13 13 14 14 14 14 14 14 14 14 13 13 12 12 12 12 11 11 11 11 11 11 11 11 12 12 12 12 12
7 8 10 11 11 11 11 11 11 11 11 11 11 12 12 13 13 14 14 15 15 15 14 14 14 14 13 13 12 12 12 11 11 11 11 11 11 11 11 11 11 11 11 11
8 8 10 11 11 11 11 11 11 11 11 11 11 12 12 13 13 14 14 15 15 15 15 15 14 14 14 13 13 12 12 11 11 11 11 11 11 11 11 11 11 11 11 11
8 9 10 11 11 11 11 11 11 11 11 11 12 12 12 13 13 14 14 15 15 15 15 15 15 14 14 13 13 12 12 12 11 11 11 11 11 10 10 10 10 10 10 10
8 10 10 11 12 11 11 11 11 11 11 11 11 12 12 13 13 14 14 15 15 15 15 15 15 15 14 14 13 13 12 12 11 11 11 11 10 10 10 10 10 10 10 10
13 13 12 12 12 12 11 11 11 11 11 11 12 12 12 13 13 14 15 15 15 16 16 16 15 15 14 14 13 13 12 12 11 11 11 11 10 10 10 9 9 9 9 9
13 13 12 12 12 12 11 11 11 11 11 11 11 12 12 13 13 14 15 15 16 16 16 16 16 15 15 14 14 13 12 12 11 11 11 11 10 10 10 9 9 9 9 9
13 13 13 12 12 11 11 11 11 11 11 11 11 12 12 12 13 14 15 15 16 16 16 16 16 15 15 14 14 13 13 12 11 11 11 11 10 10 10 9 9 9 9 9
13 12 12 12 12 11 11 11 11 11 11 11 11 12 12 12 13 13 14 15 16 16 16 16 16 16 15 15 14 13 13 12 12 11 11 11 10 10 10 10 9 9 9 9
13 12 12 12 12 11 11 11 11 11 11 11 11 11 12 12 13 13 14 15 15 16 16 16 16 16 15 15 14 14 13 12 12 11 11 10 10 10 10 10 10 9 9 9
14 14 13 13 12 11 11 11 11 11 11 11 11 11 11 12 12 13 14 15 15 16 16 16 16 16 15 15 14 14 13 12 12 11 11 10 10 10 10 10 10 9 9 9
14 13 13 12 12 11 11 11 11 11 11 11 11 11 11 11 12 12 13 14 15 16 16 16 16 16 15 15 14 14 13 12 12 11 11 11 10 10 10 10 10 10 9 9
13 13 13 12 12 11 11 11 11 11 11 11 11 11 11 11 12 12 13 13 14 15 15 16 16 16 15 15 14 14 13 12 12 11 11 11 10 10 10 10 10 10 9 9
13 13 13 12 12 12 11 11 11 11 11 11 11 11 11 11 11 12 13 13 14 14 15 15 15 15 15 15 14 14 13 12 12 11 11 11 10 10 10 10 10 10 9 9
13 13 13 12 12 12 11 11 11 11 11 11 11 11 11 11 11 12 12 12 13 14 15 15 15 15 15 15 14 14 13 12 12 11 11 11 11 10 10 10 10 10 9 9
14 13 13 12 12 12 11 11 11 11 11 11 11 11 11 11 11 11 12 12 13 14 14 15 15 15 15 15 14 14 13 12 12 11 11 11 10 10 10 10 10 10 9 9
14 13 13 12 12 12 12 11 11 11 11 11 11 11 11 11 11 11 11 12 13 13 14 14 15 15 15 15 14 14 13 12 12 11 11 11 10 10 10 10 10 10 9 9
14 13 13 12 12 12 12 12 11 11 11 11 11 11 11 11 11 11 11 12 12 13 13 14 14 14 14 14 14 14 13 13 12 11 11 11 10 10 10 10 10 9 9 9
14 13 13 13 13 12 12 12 12 11 11 11 11 11 11 11 11 11 11 11 12 12 13 13 14 14 14 14 14 14 13 13 12 11 11 11 10 10 10 10 10 9 9 9
13 13 13 12 12 12 12 12 12 12 11 11 11 11 11 11 11 11 11 11 11 12 12 13 13 13 14 14 14 13 13 13 12 12 11 11 10 10 10 10 10 9 9 9